Date String (YYYY-MM-DD hh:mm:ss) UTC,Instrument flags,Ambient pressure (hPa),Sample flow (lpm),Bypass flow (lpm),Sample temperature (°C),Ambient temperature (°C),ASC tube jacket temperature (°C),LED temperature (°C),Box temperature (°C),Sample RH (%),Span deviation,Mass concentration (μg/m³),Mass concentration (μg/m³),Mass concentration (μg/m³)
DateTimeUTC,F1_M11,P_M11,Q1_M11,Q2_M11,T1_M11,T2_M11,T3_M11,T4_M11,T5_M11,U1_M11,ZSPAN_M11,X0_M11,X2_M11,X1_M11
2021-11-09 06:00:00,,0831.4,5.00,0.00,25.6,24.7,00.0,34.8,27.3,16.2,0000.5,0023.32,0012.22,0011.04
2021-11-09 06:01:00,,0831.2,5.00,0.00,25.6,24.7,00.0,34.8,27.3,16.2,0000.4,0023.24,0012.17,0011.01
2021-11-09 06:02:00,,0831.2,5.00,0.00,25.6,24.7,00.0,34.7,27.3,16.2,0000.5,0023.66,0012.16,0011.01
2021-11-09 06:03:00,,0831.2,5.01,0.00,25.6,24.7,00.0,34.7,27.3,16.2,0000.6,0023.63,0012.12,0011.01
2021-11-09 06:04:00,,0831.3,5.00,0.00,25.6,24.7,00.0,34.7,27.3,16.2,0001.1,0024.22,0012.10,0010.98
2021-11-09 06:05:00,,0831.4,4.99,0.00,25.6,24.7,00.0,34.7,27.3,16.2,0001.4,0024.67,0012.07,0010.95
2021-11-09 06:06:00,,0831.4,5.00,0.00,25.5,24.7,00.0,34.7,27.2,16.2,0001.1,0024.69,0012.06,0010.92
2021-11-09 06:07:00,,0831.3,5.01,0.00,25.5,24.7,00.0,34.7,27.2,16.2,0001.1,0023.80,0012.01,0010.89
2021-11-09 06:08:00,,0831.2,4.99,0.00,25.5,24.7,00.0,34.7,27.2,16.2,0001.3,0023.37,0011.93,0010.86
2021-11-09 06:09:00,,0831.2,5.01,0.00,25.5,24.6,00.0,34.7,27.2,16.2,0001.3,0022.64,0011.86,0010.82
2021-11-09 06:10:00,,0831.2,5.00,0.00,25.5,24.6,00.0,34.7,27.2,16.2,0001.1,0021.88,0011.84,0010.78
2021-11-09 06:11:00,,0831.4,5.00,0.00,25.5,24.6,00.0,34.6,27.2,16.2,0001.1,0020.44,0011.83,0010.75
2021-11-09 06:12:00,,0831.3,5.00,0.00,25.5,24.6,00.0,34.6,27.2,16.1,0001.4,0020.48,0011.81,0010.74
2021-11-09 06:13:00,,0831.4,4.99,0.00,25.5,24.6,00.0,34.6,27.2,16.1,0001.6,0020.42,0011.78,0010.70
2021-11-09 06:14:00,,0831.4,5.01,0.00,25.5,24.6,00.0,34.6,27.2,16.2,0001.9,0020.00,0011.74,0010.66
2021-11-09 06:15:00,,0831.4,5.00,0.00,25.5,24.6,00.0,34.6,27.2,16.2,0002.1,0019.22,0011.70,0010.63
2021-11-09 06:16:00,,0831.4,5.00,0.00,25.4,24.6,00.0,34.6,27.1,16.2,0002.1,0019.89,0011.63,0010.59
2021-11-09 06:17:00,,0831.3,4.99,0.00,25.4,24.6,00.0,34.6,27.1,16.2,0002.4,0019.33,0011.54,0010.53
2021-11-09 06:18:00,,0831.2,5.01,0.00,25.4,24.6,00.0,34.6,27.1,16.2,0002.7,0019.38,0011.52,0010.48
2021-11-09 06:19:00,,0831.2,4.99,0.00,25.4,24.6,00.0,34.6,27.1,16.2,0002.7,0019.72,0011.54,0010.45
2021-11-09 06:20:00,,0831.1,5.00,0.00,25.4,24.5,00.0,34.6,27.1,16.2,0002.8,0019.48,0011.58,0010.45
2021-11-09 06:21:00,,0831.2,5.01,0.00,25.4,24.5,00.0,34.5,27.1,16.2,0002.5,0019.35,0011.57,0010.46
2021-11-09 06:22:00,,0831.2,5.01,0.00,25.4,24.5,00.0,34.5,27.1,16.2,0002.5,0019.20,0011.51,0010.43
2021-11-09 06:23:00,,0831.2,4.99,0.00,25.4,24.5,00.0,34.5,27.1,16.2,0002.4,0018.94,0011.47,0010.39
2021-11-09 06:24:00,,0831.2,5.01,0.00,25.4,24.5,00.0,34.5,27.1,16.2,0002.2,0019.07,0011.44,0010.38
2021-11-09 06:25:00,,0831.2,5.00,0.00,25.4,24.5,00.0,34.5,27.1,16.2,0002.3,0019.06,0011.43,0010.36
2021-11-09 06:26:00,,0831.2,5.00,0.00,25.4,24.5,00.0,34.5,27.1,16.1,0002.4,0019.15,0011.45,0010.33
2021-11-09 06:27:00,,0831.2,5.00,0.00,25.4,24.5,00.0,34.5,27.1,16.1,0002.2,0017.93,0011.46,0010.33
2021-11-09 06:28:00,,0831.2,4.99,0.00,25.4,24.5,00.0,34.5,27.1,16.1,0001.9,0017.66,0011.46,0010.34
2021-11-09 06:29:00,,0831.2,5.00,0.00,25.3,24.5,00.0,34.5,27.1,16.1,0001.6,0017.39,0011.46,0010.34
2021-11-09 06:30:00,,0831.2,5.00,0.00,25.4,24.5,00.0,34.5,27.1,16.1,0001.5,0017.08,0011.41,0010.32
2021-11-09 06:31:00,,0831.2,4.99,0.00,25.3,24.5,00.0,34.5,27.1,16.1,0001.2,0017.19,0011.32,0010.27
2021-11-09 06:32:00,,0831.2,5.00,0.00,25.3,24.5,00.0,34.5,27.1,16.1,0001.2,0017.64,0011.28,0010.23
2021-11-09 06:33:00,,0831.2,5.01,0.00,25.3,24.5,00.0,34.4,27.1,16.1,0000.8,0017.77,0011.27,0010.21
2021-11-09 06:34:00,,0831.3,4.98,0.00,25.3,24.5,00.0,34.4,27.1,16.1,0000.9,0018.41,0011.26,0010.20
2021-11-09 06:35:00,,0831.4,5.02,0.00,25.3,24.5,00.0,34.4,27.0,16.1,0001.0,0018.00,0011.24,0010.17
2021-11-09 06:36:00,,0831.4,4.99,0.00,25.3,24.5,00.0,34.4,27.0,16.1,0000.4,0017.61,0011.23,0010.15
2021-11-09 06:37:00,,0831.3,5.00,0.00,25.3,24.4,00.0,34.4,27.0,16.1,-000.0,0017.12,0011.18,0010.15
2021-11-09 06:38:00,,0831.2,5.00,0.00,25.3,24.4,00.0,34.4,27.0,16.2,0000.1,0017.24,0011.20,0010.16
2021-11-09 06:39:00,,0831.2,4.99,0.00,25.3,24.4,00.0,34.4,27.0,16.2,0000.0,0017.87,0011.20,0010.18
2021-11-09 06:40:00,,0831.2,5.02,0.00,25.3,24.4,00.0,34.4,27.0,16.2,-000.2,0018.35,0011.23,0010.19
2021-11-09 06:41:00,,0831.2,4.99,0.00,25.3,24.4,00.0,34.4,27.0,16.1,-000.4,0019.08,0011.31,0010.23
2021-11-09 06:42:00,,0831.2,5.00,0.00,25.3,24.4,00.0,34.4,27.0,16.1,-000.2,0018.92,0011.33,0010.26
2021-11-09 06:43:00,,0831.2,5.00,0.00,25.3,24.4,00.0,34.4,27.0,16.1,-000.2,0018.34,0011.29,0010.25
2021-11-09 06:44:00,,0831.2,4.99,0.00,25.3,24.4,00.0,34.4,26.9,16.1,0000.0,0018.39,0011.27,0010.27
2021-11-09 06:45:00,,0831.2,5.00,0.00,25.3,24.4,00.0,34.4,27.0,16.2,0000.1,0018.49,0011.34,0010.30
2021-11-09 06:46:00,,0831.3,5.01,0.00,25.2,24.4,00.0,34.4,26.9,16.2,0000.0,0018.47,0011.37,0010.36
2021-11-09 06:47:00,,0831.3,4.98,0.00,25.2,24.4,00.0,34.3,26.9,16.3,0000.1,0018.67,0011.47,0010.44
2021-11-09 06:48:00,,0831.2,5.01,0.00,25.2,24.3,00.0,34.3,27.0,16.3,0000.2,0019.68,0011.58,0010.52
2021-11-09 06:49:00,,0831.2,5.00,0.00,25.2,24.4,00.0,34.3,27.0,16.4,0000.2,0020.19,0011.68,0010.60
2021-11-09 06:50:00,,0831.2,5.00,0.00,25.2,24.3,00.0,34.3,26.9,16.6,-000.1,0021.77,0011.90,0010.73
2021-11-09 06:51:00,,0831.2,5.00,0.00,25.2,24.3,00.0,34.3,26.9,16.7,0000.4,0022.28,0012.07,0010.87
2021-11-09 06:52:00,,0831.1,4.99,0.00,25.2,24.4,00.0,34.3,27.0,16.7,0000.5,0021.71,0012.18,0010.99
2021-11-09 06:53:00,,0831.2,5.01,0.00,25.2,24.4,00.0,34.3,27.0,16.7,0000.3,0022.27,0012.37,0011.13
2021-11-09 06:54:00,,0831.2,5.00,0.00,25.2,24.4,00.0,34.3,26.9,16.7,0000.2,0023.03,0012.57,0011.28
2021-11-09 06:55:00,,0831.2,4.99,0.00,25.2,24.4,00.0,34.3,27.0,16.6,-000.0,0023.68,0012.71,0011.39
2021-11-09 06:56:00,,0831.2,5.01,0.00,25.2,24.4,00.0,34.3,27.0,16.6,-000.6,0023.73,0012.79,0011.48
2021-11-09 06:57:00,,0831.2,5.00,0.00,25.2,24.3,00.0,34.3,27.0,16.5,-001.0,0024.01,0012.89,0011.57
2021-11-09 06:58:00,,0831.2,5.00,0.00,25.2,24.3,00.0,34.3,27.0,16.5,-001.1,0024.41,0012.97,0011.65
2021-11-09 06:59:00,,0831.2,4.99,0.00,25.2,24.3,00.0,34.3,27.0,16.5,-001.3,0024.22,0013.04,0011.68
